| time (UTC) | temp C | wind direction | speed KPH | gust KPH | rain 1hr cm | rain 24hr cm | rain mn cm | humidity % | barometer mb |
| 20260505041506 | 3 | 252 | 0.0 | 3.2 | 0.00 | 0.00 | 0.00 | 78 | 1017.5 |
| 20260505040007 | 3 | 252 | 0.0 | 0.0 | 0.00 | 0.00 | 0.00 | 77 | 1017.4 |
| 20260505034504 | 3 | 252 | 0.0 | 0.0 | 0.00 | 0.00 | 0.00 | 77 | 1017.5 |
| 20260505033003 | 5 | 252 | 0.0 | 3.2 | 0.00 | 0.00 | 0.00 | 78 | 1017.5 |
| 20260505031503 | 5 | 252 | 0.0 | 0.0 | 0.00 | 0.00 | 0.00 | 78 | 1017.6 |
| 20260505030002 | 5 | 252 | 0.0 | 0.0 | 0.00 | 0.00 | 0.00 | 78 | 1017.6 |
| 20260505024501 | 4 | 252 | 0.0 | 0.0 | 0.00 | 0.00 | 0.00 | 78 | 1017.6 |
| 20260505023059 | 3 | 252 | 0.0 | 0.0 | 0.00 | 0.00 | 0.00 | 77 | 1017.7 |
| 20260505021558 | 3 | 252 | 0.0 | 0.0 | 0.00 | 0.00 | 0.00 | 77 | 1017.8 |
| 20260505020104 | 3 | 252 | 0.0 | 0.0 | 0.00 | 0.00 | 0.00 | 77 | 1017.8 |
| 20260505014555 | 4 | 252 | 0.0 | 0.0 | 0.00 | 0.00 | 0.00 | 77 | 1017.9 |
| 20260505013055 | 5 | 252 | 0.0 | 1.6 | 0.00 | 0.00 | 0.00 | 77 | 1018.1 |
| 20260505011551 | 5 | 252 | 0.0 | 0.0 | 0.00 | 0.00 | 0.00 | 77 | 1018.2 |
| 20260505010107 | 5 | 252 | 0.0 | 1.6 | 0.00 | 0.00 | 0.00 | 77 | 1018.3 |
| 20260505004547 | 5 | 252 | 0.0 | 0.0 | 0.00 | 0.00 | 0.00 | 77 | 1018.3 |
| 20260505003044 | 5 | 252 | 0.0 | 0.0 | 0.00 | 0.00 | 0.00 | 76 | 1018.4 |
| 20260505001545 | 5 | 252 | 0.0 | 0.0 | 0.00 | 0.00 | 0.00 | 76 | 1018.4 |
| 20260505000047 | 5 | 252 | 0.0 | 0.0 | 0.00 | 0.00 | 0.00 | 76 | 1018.4 |
| 20260504234541 | 5 | 252 | 0.0 | 0.0 | 0.00 | 0.00 | 0.00 | 76 | 1018.3 |
| 20260504233047 | 5 | 252 | 0.0 | 0.0 | 0.00 | 0.00 | 0.00 | 76 | 1018.2 |
| 20260504231541 | 6 | 252 | 0.0 | 0.0 | 0.00 | 0.00 | 0.00 | 76 | 1018.2 |
| 20260504230036 | 6 | 252 | 0.0 | 0.0 | 0.00 | 0.00 | 0.00 | 76 | 1018.1 |
| 20260504224531 | 7 | 252 | 0.0 | 3.2 | 0.00 | 0.00 | 0.00 | 76 | 1018.2 |
| 20260504223026 | 8 | 252 | 0.0 | 0.0 | 0.00 | 0.00 | 0.00 | 76 | 1018.3 |
| 20260504221523 | 8 | 252 | 0.0 | 0.0 | 0.00 | 0.00 | 0.00 | 76 | 1018.5 |
| 20260504220022 | 9 | 252 | 0.0 | 0.0 | 0.00 | 0.00 | 0.00 | 76 | 1018.5 |
| 20260504214521 | 9 | 252 | 0.0 | 0.0 | 0.00 | 0.00 | 0.00 | 77 | 1018.6 |
| 20260504213021 | 10 | 252 | 0.0 | 0.0 | 0.00 | 0.00 | 0.00 | 77 | 1018.6 |
| 20260504211521 | 10 | 252 | 3.2 | 8.0 | 0.00 | 0.00 | 0.00 | 77 | 1018.5 |
| 20260504210019 | 10 | 252 | 6.4 | 11.3 | 0.00 | 0.00 | 0.00 | 77 | 1018.4 |
| 20260504204516 | 9 | 252 | 0.0 | 0.0 | 0.00 | 0.00 | 0.00 | 77 | 1018.2 |
| 20260504203021 | 9 | 252 | 0.0 | 0.0 | 0.00 | 0.00 | 0.00 | 77 | 1017.9 |
| 20260504201511 | 10 | 252 | 0.0 | 1.6 | 0.00 | 0.00 | 0.00 | 76 | 1017.7 |
| 20260504200007 | 10 | 252 | 4.8 | 8.0 | 0.00 | 0.00 | 0.00 | 74 | 1017.5 |
| 20260504194507 | 11 | 252 | 3.2 | 8.0 | 0.00 | 0.00 | 0.00 | 74 | 1017.2 |
| 20260504193012 | 11 | 252 | 6.4 | 12.9 | 0.00 | 0.00 | 0.00 | 72 | 1017.0 |
| 20260504191508 | 12 | 252 | 8.0 | 12.9 | 0.00 | 0.00 | 0.00 | 70 | 1016.9 |
| 20260504190002 | 12 | 252 | 6.4 | 16.1 | 0.00 | 0.00 | 0.00 | 67 | 1016.8 |
| 20260504184502 | 13 | 252 | 8.0 | 19.3 | 0.00 | 0.00 | 0.00 | 66 | 1016.8 |
| 20260504183002 | 13 | 250 | 9.7 | 17.7 | 0.00 | 0.00 | 0.00 | 66 | 1016.6 |
| 20260504181501 | 13 | 252 | 8.0 | 17.7 | 0.00 | 0.00 | 0.00 | 67 | 1016.5 |
| 20260504180100 | 13 | 250 | 11.3 | 20.9 | 0.00 | 0.00 | 0.00 | 65 | 1016.4 |
| 20260504174609 | 13 | 275 | 12.9 | 20.9 | 0.00 | 0.00 | 0.00 | 67 | 1016.3 |
| 20260504173101 | 13 | 250 | 9.7 | 22.5 | 0.00 | 0.00 | 0.00 | 68 | 1016.3 |
| 20260504171559 | 13 | 183 | 6.4 | 12.9 | 0.00 | 0.00 | 0.00 | 74 | 1016.3 |
| 20260504081515 | 11 | 232 | 4.8 | 9.7 | 0.00 | 0.00 | 0.00 | 75 | 1016.2 |